Wind_Speed
46 46 47 48 48 48 49 49 49 49 49 49 49 50 51 52 52 52 51 51 51 51 52 53 53 53 53 52 51 50 50 51 52 50 50 50 50 51 51 51 51 51 51
46 46 47 47 47 48 48 48 48 49 49 49 50 50 51 51 52 52 52 51 52 52 52 53 52 52 52 52 50 50 50 51 52 52 51 50 50 50 51 51 51 51 51
46 46 46 46 46 47 47 47 48 49 49 50 50 50 51 51 51 51 51 51 51 52 52 52 52 52 52 52 51 50 50 50 51 52 50 50 50 51 52 52 52 51 51
44 45 45 45 45 46 46 47 48 49 50 50 50 49 50 50 50 50 50 50 51 51 51 52 52 52 52 51 51 50 49 49 50 51 50 49 49 50 50 50 49 48 49
44 43 43 44 44 44 45 47 48 49 49 50 50 50 49 49 50 50 50 50 51 51 51 51 52 51 51 51 51 51 50 49 49 50 50 49 49 49 49 48 47 46 45
43 43 43 44 44 44 45 47 48 48 48 49 49 50 49 49 49 50 51 50 50 50 50 50 51 51 51 50 51 51 50 49 49 48 48 47 48 48 47 46 46 45 45
43 43 43 44 44 45 45 46 47 47 48 49 49 50 49 49 49 50 51 50 49 50 49 49 49 49 49 49 49 50 50 49 49 48 47 46 46 46 45 45 45 45 44
43 44 44 44 44 45 46 47 48 48 49 49 49 49 49 49 48 49 49 49 49 48 48 48 47 46 46 47 48 49 48 47 47 47 46 44 43 43 43 44 44 43 42
42 43 44 45 45 45 46 47 49 49 49 48 48 48 48 48 48 48 48 47 47 46 46 46 45 44 44 44 44 44 43 43 44 44 43 43 42 41 41 41 41 41 39
42 43 44 45 45 45 46 47 47 47 47 47 46 47 47 47 47 47 47 47 46 45 44 43 43 42 41 41 40 40 40 40 40 41 41 41 40 39 39 39 39 39 38
43 43 44 44 45 45 45 46 47 47 47 46 47 47 46 46 46 46 46 45 44 43 42 41 40 39 38 38 39 38 38 38 38 39 38 37 37 37 36 35 34 35 35
43 43 43 44 44 44 45 45 46 46 46 46 46 45 45 45 45 45 45 44 42 41 40 39 37 37 36 37 37 36 37 37 36 36 36 35 34 33 34 34 33 33 33
42 42 43 43 44 44 45 45 45 46 45 45 44 43 43 43 42 42 41 40 39 38 38 37 36 35 35 35 35 35 35 35 35 35 33 32 32 32 32 32 31 32 33
42 42 42 42 43 44 44 44 44 44 43 43 42 42 41 39 39 38 37 36 35 35 35 34 33 33 33 33 33 32 32 32 32 31 31 30 31 31 31 31 30 31 32
42 42 41 42 42 43 43 43 42 41 42 41 40 38 36 35 34 34 33 31 31 31 31 31 31 32 32 32 31 31 30 30 30 29 29 30 29 29 29 29 29 29 30
42 42 42 42 42 41 41 40 39 39 38 38 36 35 34 32 31 30 29 28 28 28 28 28 29 29 28 28 29 29 29 29 28 28 28 27 27 27 27 28 28 28 28
41 42 41 41 40 40 39 38 36 35 35 34 33 32 31 29 28 27 26 25 25 25 25 25 25 25 26 26 27 28 27 27 27 27 27 26 26 26 26 26 27 27 27
40 40 40 39 38 38 37 35 34 33 32 30 30 29 27 26 25 25 24 24 23 23 23 23 23 23 23 24 25 25 25 26 26 26 26 26 26 25 26 26 26 26 26
38 37 36 36 35 34 33 32 31 30 29 27 27 25 24 23 23 23 23 22 22 22 22 22 21 21 21 22 22 23 23 24 24 24 24 25 25 24 24 24 24 25 25
35 34 34 33 32 31 30 29 28 27 25 24 23 23 22 21 21 21 21 21 21 21 20 20 20 20 20 21 21 22 22 21 21 21 21 21 22 22 22 22 23 24 23
33 32 32 31 30 29 28 26 26 25 23 22 21 21 20 20 20 19 19 19 19 19 18 18 18 18 18 18 18 18 18 18 19 19 19 19 20 20 21 21 22 22 22
31 29 29 28 27 26 25 24 23 22 21 20 19 19 19 18 18 17 17 17 17 17 16 16 16 16 16 16 16 16 16 16 17 17 18 18 19 19 20 20 20 20 19
28 27 26 25 25 24 23 22 21 20 19 18 17 17 16 16 16 16 16 16 15 15 14 14 14 14 15 15 15 15 16 16 16 17 18 18 18 18 18 18 18 18 18
26 25 23 23 23 21 20 20 20 19 18 17 16 15 14 14 14 14 14 14 13 13 13 13 13 13 14 14 14 15 15 15 16 16 17 17 17 17 17 17 17 17 17
24 23 21 21 21 20 20 19 18 17 17 16 14 14 13 12 12 12 12 12 12 12 12 12 13 13 13 13 13 14 14 14 15 15 16 16 16 16 16 16 16 16 16
22 21 20 20 20 19 19 18 17 16 15 14 14 13 13 12 12 11 11 11 11 11 11 12 12 12 12 12 12 12 13 13 14 14 14 15 15 15 15 15 15 14 15
Wind_Direction
279 279 278 278 278 277 277 277 276 276 276 276 277 277 277 277 277 278 277 275 273 273 272 272 272 272 271 271 273 273 273 273 272 273 271 269 269 268 268 269 270 271 271
280 280 280 279 279 278 278 277 276 277 277 277 278 278 279 279 278 278 277 275 274 274 273 273 272 272 270 270 271 273 272 271 272 272 271 271 270 269 268 269 271 271 272
282 281 280 280 279 279 278 277 277 278 278 279 279 279 280 280 279 278 277 276 275 275 275 274 273 272 271 269 270 271 271 271 271 272 272 273 271 270 269 269 271 272 272
283 282 281 281 281 280 279 278 279 279 279 280 280 281 281 281 280 279 277 277 277 277 276 276 275 273 271 269 269 270 270 271 272 273 273 273 272 270 270 270 271 271 271
283 283 283 283 282 281 281 280 280 280 280 281 281 281 282 281 281 280 278 277 277 278 277 277 276 274 272 269 268 268 270 270 271 272 272 272 271 270 269 271 270 269 270
283 284 284 284 283 282 282 281 281 281 281 282 282 282 282 282 281 280 279 278 278 278 278 277 276 274 271 269 269 269 270 271 271 272 272 272 270 269 268 269 269 269 269
283 284 285 285 284 284 284 283 283 284 284 283 282 282 282 282 281 280 280 279 278 279 278 277 276 274 271 270 269 270 271 271 272 272 273 271 269 268 267 267 268 269 269
285 285 285 286 286 285 285 285 284 285 285 284 283 282 282 283 282 281 280 279 279 279 278 277 276 274 272 270 270 270 270 270 271 271 271 270 269 268 267 267 268 267 267
286 286 287 286 286 286 286 286 286 286 285 286 285 284 283 283 283 281 280 280 279 279 278 276 275 274 272 271 271 271 270 269 269 269 268 267 267 268 268 267 268 267 267
288 288 288 288 287 288 288 288 287 286 286 286 285 285 285 284 282 282 280 279 278 278 277 276 275 273 272 271 271 271 270 269 268 268 267 268 268 269 268 267 267 267 266
289 289 289 289 289 290 291 290 289 289 288 288 288 286 285 284 283 281 280 278 278 278 277 276 275 273 271 269 269 269 269 268 268 267 267 267 268 269 269 268 268 267 267
290 290 290 291 291 291 291 291 291 290 290 289 288 286 285 284 282 280 279 278 277 277 276 274 273 271 269 267 267 268 268 268 268 267 267 267 267 268 268 267 265 266 267
291 291 291 292 292 292 292 292 291 290 290 289 288 287 286 284 282 281 279 278 277 275 274 272 271 269 267 267 267 267 267 267 268 268 267 267 266 266 266 264 264 264 265
292 292 292 293 294 294 294 293 292 290 290 290 289 287 285 284 283 281 279 277 276 275 274 271 270 269 268 268 266 265 266 266 266 266 265 265 265 265 265 265 264 264 266
292 293 293 294 294 295 295 294 293 291 291 291 289 287 284 283 283 281 280 278 278 277 273 270 268 268 268 266 264 264 265 265 265 265 265 265 265 264 265 264 263 264 267
292 293 294 295 295 295 295 295 294 293 292 291 290 287 285 284 282 280 279 279 279 279 275 271 269 268 267 265 263 263 263 263 262 263 263 262 262 262 264 265 265 265 268
293 294 295 296 296 296 296 295 293 292 291 290 289 288 286 283 280 278 278 278 278 278 276 273 271 269 266 263 262 261 260 261 261 262 263 263 262 263 266 266 266 267 267
294 295 296 297 297 297 296 296 295 293 291 289 287 285 284 281 278 275 275 276 276 275 274 273 273 271 267 265 264 262 260 261 260 261 262 261 261 263 266 267 268 269 270
295 295 296 297 297 297 296 295 295 295 293 291 288 286 284 282 279 275 274 274 274 274 274 274 273 270 267 265 264 263 262 260 260 261 261 262 262 263 266 267 268 269 271
294 294 295 296 297 297 297 297 296 295 294 291 288 286 285 282 279 277 276 275 276 277 276 274 273 271 270 269 267 265 263 261 260 260 261 263 263 264 267 269 270 270 270
293 294 295 296 296 297 297 297 296 295 295 293 289 286 285 282 280 278 275 275 275 275 274 272 271 269 269 270 268 266 263 261 260 260 261 263 264 266 268 270 271 271 269
293 293 294 295 296 296 296 296 297 296 295 294 292 290 288 284 281 277 275 275 274 273 272 271 270 269 268 268 268 267 265 265 264 264 264 265 266 268 270 269 268 268 267
293 293 293 293 295 296 295 295 297 297 296 295 294 293 290 286 282 278 277 275 273 270 269 269 270 268 266 267 267 267 268 268 267 267 267 266 266 269 270 268 266 264 266
293 292 292 293 293 293 294 296 298 298 297 297 296 295 291 287 283 281 279 275 271 268 268 268 270 268 266 267 268 268 268 268 268 268 268 266 267 267 267 267 267 267 269
292 292 291 291 291 291 292 295 297 297 298 297 296 294 291 286 282 280 277 273 269 267 268 270 270 269 267 267 269 271 272 272 271 270 270 270 269 268 267 266 267 269 271
290 290 291 291 290 289 290 292 293 295 295 294 295 294 291 287 282 278 276 273 272 271 271 271 270 269 270 272 273 273 273 273 273 272 271 272 269 268 267 267 268 271 273
Height
5619 5617 5616 5614 5612 5610 5609 5608 5607 5606 5605 5604 5603 5602 5601 5600 5598 5597 5595 5595 5594 5594 5594 5594 5594 5594 5595 5595 5594 5594 5593 5592 5593 5596 5597 5597 5596 5596 5596 5596 5596 5597 5597
5607 5605 5603 5601 5600 5598 5596 5595 5594 5593 5592 5591 5590 5588 5587 5585 5584 5583 5581 5580 5580 5580 5580 5579 5579 5579 5580 5580 5580 5580 5579 5578 5578 5580 5582 5582 5582 5582 5582 5582 5582 5582 5583
5595 5593 5591 5589 5587 5586 5584 5583 5582 5580 5579 5578 5576 5575 5573 5571 5570 5568 5567 5566 5566 5566 5565 5565 5565 5564 5565 5565 5565 5565 5565 5564 5564 5564 5567 5567 5567 5567 5567 5567 5568 5568 5568
5584 5581 5579 5577 5575 5573 5572 5570 5569 5568 5566 5565 5563 5561 5559 5557 5556 5554 5553 5552 5552 5551 5551 5550 5549 5549 5550 5550 5550 5551 5550 5550 5550 5549 5551 5552 5553 5553 5552 5553 5553 5554 5554
5573 5570 5568 5566 5563 5561 5560 5558 5557 5555 5553 5551 5549 5548 5545 5543 5542 5540 5539 5538 5538 5537 5536 5535 5534 5534 5534 5534 5535 5535 5536 5536 5536 5536 5537 5537 5538 5539 5539 5539 5539 5540 5540
5562 5559 5557 5555 5552 5550 5548 5546 5544 5543 5540 5538 5536 5534 5532 5530 5528 5526 5525 5524 5523 5522 5522 5521 5520 5519 5519 5519 5519 5520 5520 5521 5521 5522 5522 5523 5524 5525 5525 5525 5525 5526 5528
5551 5548 5545 5543 5541 5539 5536 5534 5532 5530 5527 5525 5522 5520 5518 5516 5513 5512 5510 5509 5509 5508 5507 5506 5505 5505 5504 5505 5505 5506 5506 5506 5506 5507 5508 5509 5510 5511 5511 5512 5512 5512 5514
5539 5537 5534 5532 5529 5527 5524 5521 5519 5516 5513 5511 5508 5506 5504 5502 5499 5497 5496 5495 5494 5493 5492 5491 5491 5491 5490 5491 5491 5492 5493 5493 5493 5493 5494 5495 5496 5497 5497 5498 5499 5499 5501
5528 5525 5523 5520 5517 5514 5511 5508 5505 5503 5500 5497 5495 5492 5490 5488 5485 5483 5481 5480 5480 5479 5478 5477 5477 5477 5477 5477 5478 5479 5480 5480 5480 5480 5481 5482 5483 5484 5484 5485 5486 5487 5488
5517 5514 5511 5508 5505 5502 5499 5495 5492 5489 5487 5484 5481 5479 5476 5474 5472 5469 5467 5467 5467 5466 5465 5464 5463 5463 5463 5464 5465 5466 5467 5468 5468 5468 5469 5470 5471 5472 5473 5473 5474 5475 5476
5505 5502 5499 5496 5493 5489 5486 5483 5480 5477 5474 5471 5469 5466 5463 5461 5458 5456 5454 5453 5453 5452 5452 5451 5451 5450 5451 5452 5453 5454 5455 5455 5456 5457 5458 5459 5460 5461 5462 5462 5463 5464 5465
5494 5491 5488 5484 5480 5477 5474 5470 5467 5464 5461 5458 5456 5453 5450 5447 5445 5443 5442 5441 5440 5439 5439 5439 5439 5439 5440 5440 5441 5442 5443 5444 5445 5446 5447 5449 5450 5451 5451 5452 5453 5454 5455
5483 5480 5476 5473 5469 5465 5462 5458 5455 5451 5448 5445 5442 5440 5438 5435 5433 5431 5430 5429 5428 5427 5427 5427 5427 5428 5428 5429 5430 5431 5432 5433 5434 5436 5437 5439 5440 5440 5441 5442 5443 5444 5446
5471 5468 5465 5461 5458 5454 5450 5446 5442 5439 5436 5433 5430 5427 5426 5424 5421 5420 5418 5418 5417 5416 5416 5416 5416 5417 5417 5418 5419 5420 5421 5423 5424 5426 5427 5428 5429 5430 5431 5432 5434 5435 5436
5460 5457 5453 5450 5446 5443 5438 5434 5430 5427 5423 5420 5418 5416 5414 5413 5411 5409 5408 5407 5406 5406 5405 5406 5406 5407 5408 5408 5409 5410 5412 5413 5415 5416 5417 5419 5420 5421 5422 5423 5424 5425 5426
5449 5446 5442 5439 5435 5431 5428 5424 5419 5416 5413 5409 5406 5405 5404 5403 5401 5400 5399 5398 5397 5397 5396 5397 5397 5398 5398 5399 5400 5401 5403 5404 5406 5407 5409 5410 5411 5413 5414 5415 5415 5417 5418
5437 5434 5431 5427 5424 5420 5417 5413 5411 5407 5403 5400 5397 5396 5394 5393 5392 5391 5391 5390 5390 5389 5389 5389 5389 5389 5390 5391 5392 5393 5395 5396 5398 5399 5401 5402 5403 5405 5406 5406 5407 5408 5409
5426 5423 5420 5416 5413 5410 5406 5403 5400 5397 5395 5392 5390 5387 5386 5385 5384 5384 5383 5383 5383 5382 5382 5382 5382 5382 5382 5383 5384 5385 5387 5388 5390 5391 5393 5394 5395 5397 5398 5398 5399 5400 5401
5416 5413 5409 5406 5403 5400 5397 5394 5391 5388 5386 5384 5382 5380 5379 5378 5377 5376 5376 5376 5376 5376 5376 5375 5375 5375 5375 5376 5377 5378 5380 5381 5382 5384 5385 5386 5388 5389 5390 5391 5392 5392 5393
5406 5403 5400 5397 5394 5391 5388 5386 5383 5380 5378 5376 5374 5373 5372 5371 5371 5370 5370 5370 5369 5369 5369 5369 5369 5369 5369 5370 5371 5372 5373 5374 5376 5377 5378 5379 5380 5382 5383 5384 5384 5385 5385
5396 5393 5391 5388 5386 5383 5381 5378 5376 5373 5371 5369 5368 5366 5366 5365 5365 5364 5364 5364 5363 5363 5363 5363 5363 5364 5364 5365 5366 5366 5367 5368 5369 5371 5372 5373 5374 5375 5376 5376 5377 5377 5378
5387 5385 5383 5380 5378 5376 5374 5371 5369 5367 5365 5363 5362 5361 5360 5359 5358 5358 5358 5358 5358 5358 5358 5358 5359 5359 5360 5360 5361 5361 5362 5362 5363 5365 5366 5366 5367 5368 5369 5369 5370 5370 5371
5379 5377 5375 5373 5371 5369 5367 5365 5363 5362 5360 5358 5357 5355 5354 5354 5353 5353 5353 5353 5352 5353 5353 5354 5354 5354 5355 5355 5356 5356 5357 5357 5358 5359 5359 5360 5361 5361 5362 5363 5363 5364 5364
5372 5370 5368 5366 5365 5363 5362 5360 5358 5356 5355 5353 5352 5351 5350 5349 5349 5349 5348 5348 5348 5348 5349 5349 5349 5350 5350 5350 5351 5351 5351 5352 5352 5353 5353 5354 5355 5355 5356 5357 5357 5358 5358
5365 5363 5361 5360 5359 5357 5356 5355 5353 5352 5350 5349 5348 5347 5346 5345 5345 5345 5344 5344 5344 5344 5344 5345 5345 5345 5345 5346 5346 5346 5346 5346 5347 5347 5348 5348 5349 5350 5350 5351 5352 5352 5353
5358 5357 5355 5354 5353 5352 5350 5349 5348 5347 5346 5345 5344 5343 5342 5342 5341 5341 5341 5340 5340 5340 5340 5341 5341 5341 5341 5341 5342 5342 5342 5342 5342 5342 5343 5343 5344 5344 5345 5345 5346 5347 5347